Year,Month,Day,Hour,Minute,Value (Times are PST for barometer in hPa)
2013,09,30,00,00,991.16
2013,09,30,00,01,991.16
2013,09,30,00,02,991.20
2013,09,30,00,03,991.26
2013,09,30,00,04,991.20
2013,09,30,00,05,991.33
2013,09,30,00,06,991.33
2013,09,30,00,07,991.33
2013,09,30,00,08,991.40
2013,09,30,00,09,991.30
2013,09,30,00,10,991.40
2013,09,30,00,11,991.30
2013,09,30,00,12,991.26
2013,09,30,00,13,991.30
2013,09,30,00,14,991.20
2013,09,30,00,15,991.32
2013,09,30,00,16,991.30
2013,09,30,00,17,991.30
2013,09,30,00,18,991.26
2013,09,30,00,19,991.30
2013,09,30,00,20,991.40
2013,09,30,00,21,991.33
2013,09,30,00,22,991.30
2013,09,30,00,23,991.37
2013,09,30,00,24,991.37
2013,09,30,00,25,991.40
2013,09,30,00,26,991.40
2013,09,30,00,27,991.47
2013,09,30,00,28,991.57
2013,09,30,00,29,991.66
2013,09,30,00,30,991.77
2013,09,30,00,31,991.70
2013,09,30,00,32,991.74
2013,09,30,00,33,991.74
2013,09,30,00,34,991.74
2013,09,30,00,35,991.77
2013,09,30,00,36,991.70
2013,09,30,00,37,991.74
2013,09,30,00,38,991.81
2013,09,30,00,39,991.68
2013,09,30,00,40,991.70
2013,09,30,00,41,991.64
2013,09,30,00,42,991.64
2013,09,30,00,43,991.47
2013,09,30,00,44,991.47
2013,09,30,00,45,991.47
2013,09,30,00,46,991.43
2013,09,30,00,47,991.40
2013,09,30,00,48,991.43
2013,09,30,00,49,991.40
2013,09,30,00,50,991.47
2013,09,30,00,51,991.53
2013,09,30,00,52,991.60
2013,09,30,00,53,991.60
2013,09,30,00,54,991.76
2013,09,30,00,55,991.77
2013,09,30,00,56,991.81
2013,09,30,00,57,991.77
2013,09,30,00,58,991.81
2013,09,30,00,59,991.65
2013,09,30,01,00,991.73
2013,09,30,01,01,991.74
2013,09,30,01,02,991.67
2013,09,30,01,03,991.77
2013,09,30,01,04,991.74
2013,09,30,01,05,991.64
2013,09,30,01,06,991.64
2013,09,30,01,07,991.54
2013,09,30,01,08,991.66
2013,09,30,01,09,991.67
2013,09,30,01,10,991.67
2013,09,30,01,11,991.67
2013,09,30,01,12,991.74
2013,09,30,01,13,991.84
2013,09,30,01,14,991.91
2013,09,30,01,15,991.87
2013,09,30,01,16,991.94
2013,09,30,01,17,991.98
2013,09,30,01,18,992.08
2013,09,30,01,19,992.14
2013,09,30,01,20,992.18
2013,09,30,01,21,992.25
2013,09,30,01,22,992.31
2013,09,30,01,23,992.35
2013,09,30,01,24,992.38
2013,09,30,01,25,992.38
2013,09,30,01,26,992.47
2013,09,30,01,27,992.45
2013,09,30,01,28,992.45
2013,09,30,01,29,992.48
2013,09,30,01,30,992.48
2013,09,30,01,31,992.45
2013,09,30,01,32,992.38
2013,09,30,01,33,992.54
2013,09,30,01,34,992.62
2013,09,30,01,35,992.74
2013,09,30,01,36,992.72
2013,09,30,01,37,992.65
2013,09,30,01,38,992.62
2013,09,30,01,39,992.65
2013,09,30,01,40,992.58
2013,09,30,01,41,992.68
2013,09,30,01,42,992.72
2013,09,30,01,43,992.85
2013,09,30,01,44,992.98
2013,09,30,01,45,992.76
2013,09,30,01,46,992.75
2013,09,30,01,47,992.85
2013,09,30,01,48,992.82
2013,09,30,01,49,992.86
2013,09,30,01,50,992.82
2013,09,30,01,51,992.95
2013,09,30,01,52,992.99
2013,09,30,01,53,993.06
2013,09,30,01,54,992.99
2013,09,30,01,55,993.09
2013,09,30,01,56,993.18
2013,09,30,01,57,993.23
2013,09,30,01,58,993.19
2013,09,30,01,59,993.23
2013,09,30,02,00,993.26
2013,09,30,02,01,993.23
2013,09,30,02,02,993.33
2013,09,30,02,03,993.36
2013,09,30,02,04,993.43
2013,09,30,02,05,993.53
2013,09,30,02,06,993.73
2013,09,30,02,07,993.84
2013,09,30,02,08,993.77
2013,09,30,02,09,993.90
2013,09,30,02,10,993.52
2013,09,30,02,11,993.53
2013,09,30,02,12,993.60
2013,09,30,02,13,993.60
2013,09,30,02,14,993.60
2013,09,30,02,15,993.76
2013,09,30,02,16,993.86
2013,09,30,02,17,993.91
2013,09,30,02,18,993.91
2013,09,30,02,19,993.87
2013,09,30,02,20,993.94
2013,09,30,02,21,993.94
2013,09,30,02,22,993.91
2013,09,30,02,23,993.91
2013,09,30,02,24,993.87
2013,09,30,02,25,993.80
2013,09,30,02,26,993.87
2013,09,30,02,27,993.94
2013,09,30,02,28,993.94
2013,09,30,02,29,993.97
2013,09,30,02,30,994.01
2013,09,30,02,31,994.04
2013,09,30,02,32,994.11
2013,09,30,02,33,994.04
2013,09,30,02,34,994.04
2013,09,30,02,35,994.07
2013,09,30,02,36,994.14
2013,09,30,02,37,994.04
2013,09,30,02,38,994.07
2013,09,30,02,39,994.01
2013,09,30,02,40,994.07
2013,09,30,02,41,994.07
2013,09,30,02,42,993.95
2013,09,30,02,43,993.94
2013,09,30,02,44,993.97
2013,09,30,02,45,994.01
2013,09,30,02,46,994.04
2013,09,30,02,47,994.01
2013,09,30,02,48,994.04
2013,09,30,02,49,993.97
2013,09,30,02,50,993.88
2013,09,30,02,51,993.91
2013,09,30,02,52,993.94
2013,09,30,02,53,993.91
2013,09,30,02,54,993.94
2013,09,30,02,55,993.97
2013,09,30,02,56,993.97
2013,09,30,02,57,993.91
2013,09,30,02,58,993.87
2013,09,30,02,59,993.91
2013,09,30,03,00,993.97
2013,09,30,03,01,993.91
2013,09,30,03,02,993.97
2013,09,30,03,03,993.88
2013,09,30,03,06,993.93
2013,09,30,03,07,993.84
2013,09,30,03,08,993.84
2013,09,30,03,09,993.81
2013,09,30,03,10,993.91
2013,09,30,03,11,993.91
2013,09,30,03,12,993.95
2013,09,30,03,13,994.01
2013,09,30,03,14,994.04
2013,09,30,03,15,994.04
2013,09,30,03,16,994.08
2013,09,30,03,17,994.14
2013,09,30,03,18,994.15
2013,09,30,03,19,994.20
2013,09,30,03,20,994.14
2013,09,30,03,21,994.18
2013,09,30,03,22,994.21
2013,09,30,03,23,994.17
2013,09,30,03,24,994.12
2013,09,30,03,25,994.20
2013,09,30,03,26,994.14
2013,09,30,03,27,994.11
2013,09,30,03,28,994.12
2013,09,30,03,29,994.18
2013,09,30,03,30,994.21
2013,09,30,03,31,994.24
2013,09,30,03,32,994.25
2013,09,30,03,33,994.32
2013,09,30,03,34,994.38
2013,09,30,03,35,994.41
2013,09,30,03,36,994.45
2013,09,30,03,37,994.48
2013,09,30,03,38,994.45
2013,09,30,03,39,994.41
2013,09,30,03,40,994.45
2013,09,30,03,41,994.45
2013,09,30,03,42,994.48
2013,09,30,03,43,994.48
2013,09,30,03,44,994.46
2013,09,30,03,45,994.55
2013,09,30,03,46,994.55
2013,09,30,03,47,994.55
2013,09,30,03,48,994.55
2013,09,30,03,49,994.52
2013,09,30,03,50,994.56
2013,09,30,03,51,994.62
2013,09,30,03,52,994.58
2013,09,30,03,53,994.58
2013,09,30,03,54,994.62
2013,09,30,03,55,994.64
2013,09,30,03,56,994.55
2013,09,30,03,57,994.58
2013,09,30,03,58,994.62
2013,09,30,03,59,994.66
2013,09,30,04,00,994.80
2013,09,30,04,01,994.85
2013,09,30,04,02,994.86
2013,09,30,04,03,994.93
2013,09,30,04,04,995.03
2013,09,30,04,05,995.10
2013,09,30,04,06,995.16
2013,09,30,04,07,995.12
2013,09,30,04,08,995.10
2013,09,30,04,09,995.18
2013,09,30,04,10,995.08
2013,09,30,04,11,995.02
2013,09,30,04,12,995.03
2013,09,30,04,13,995.12
2013,09,30,04,14,995.10
2013,09,30,04,15,995.16
2013,09,30,04,16,995.09
2013,09,30,04,17,995.12
2013,09,30,04,18,995.13
2013,09,30,04,19,995.19
2013,09,30,04,20,995.19
2013,09,30,04,21,995.23
2013,09,30,04,22,995.23
2013,09,30,04,23,995.26
2013,09,30,04,24,995.26
2013,09,30,04,25,995.27
2013,09,30,04,26,995.33
2013,09,30,04,27,995.34
2013,09,30,04,28,995.43
2013,09,30,04,29,995.44
2013,09,30,04,30,995.50
2013,09,30,04,31,995.53
2013,09,30,04,32,995.56
2013,09,30,04,33,995.60
2013,09,30,04,34,995.56
2013,09,30,04,35,995.57
2013,09,30,04,36,995.64
2013,09,30,04,37,995.73
2013,09,30,04,38,995.70
2013,09,30,04,39,995.70
2013,09,30,04,40,995.73
2013,09,30,04,41,995.74
2013,09,30,04,42,995.80
2013,09,30,04,43,995.80
2013,09,30,04,44,995.77
2013,09,30,04,45,995.77
2013,09,30,04,46,995.77
2013,09,30,04,47,995.78
2013,09,30,04,48,995.84
2013,09,30,04,49,995.83
2013,09,30,04,50,995.74
2013,09,30,04,51,995.79
2013,09,30,04,52,995.70
2013,09,30,04,53,995.73
2013,09,30,04,54,995.73
2013,09,30,04,55,995.71
2013,09,30,04,56,995.77
2013,09,30,04,57,995.84
2013,09,30,04,58,995.84
2013,09,30,04,59,995.84
2013,09,30,05,00,995.87
2013,09,30,05,01,995.87
2013,09,30,05,02,995.86
2013,09,30,05,03,995.80
2013,09,30,05,04,995.77
2013,09,30,05,05,995.80
2013,09,30,05,06,995.77
2013,09,30,05,07,995.77
2013,09,30,05,08,995.76
2013,09,30,05,09,995.70
2013,09,30,05,10,995.70
2013,09,30,05,11,995.64
2013,09,30,05,12,995.70
2013,09,30,05,13,995.70
2013,09,30,05,14,995.72
2013,09,30,05,15,995.67
2013,09,30,05,16,995.70
2013,09,30,05,17,995.73
2013,09,30,05,18,995.78
2013,09,30,05,19,995.88
2013,09,30,05,20,995.98
2013,09,30,05,21,996.13
2013,09,30,05,22,996.28
2013,09,30,05,23,996.24
2013,09,30,05,24,996.22
2013,09,30,05,25,996.28
2013,09,30,05,26,996.24
2013,09,30,05,27,996.31
2013,09,30,05,28,996.35
2013,09,30,05,29,996.41
2013,09,30,05,30,996.46
2013,09,30,05,31,996.52
2013,09,30,05,32,996.66
2013,09,30,05,33,996.75
2013,09,30,05,34,996.76
2013,09,30,05,35,996.84
2013,09,30,05,36,996.78
2013,09,30,05,37,996.82
2013,09,30,05,38,996.77
2013,09,30,05,39,996.71
2013,09,30,05,40,996.62
2013,09,30,05,41,996.68
2013,09,30,05,42,996.72
2013,09,30,05,43,996.72
2013,09,30,05,44,996.68
2013,09,30,05,45,996.75
2013,09,30,05,46,996.79
2013,09,30,05,47,996.84
2013,09,30,05,48,996.71
2013,09,30,05,49,996.61
2013,09,30,05,50,996.65
2013,09,30,05,51,996.61
2013,09,30,05,52,996.58
2013,09,30,05,53,996.58
2013,09,30,05,54,996.61
2013,09,30,05,55,996.66
2013,09,30,05,56,996.72
2013,09,30,05,57,996.68
2013,09,30,05,58,996.68
2013,09,30,05,59,996.73
2013,09,30,06,00,996.78
2013,09,30,06,01,996.79
2013,09,30,06,02,996.85
2013,09,30,06,03,996.82
2013,09,30,06,04,996.81
2013,09,30,06,05,996.75
2013,09,30,06,06,996.75
2013,09,30,06,07,996.78
2013,09,30,06,08,996.78
2013,09,30,06,09,996.81
2013,09,30,06,10,996.75
2013,09,30,06,11,996.78
2013,09,30,06,12,996.75
2013,09,30,06,13,996.78
2013,09,30,06,14,996.77
2013,09,30,06,15,996.72
2013,09,30,06,16,996.72
2013,09,30,06,17,996.65
2013,09,30,06,18,996.65
2013,09,30,06,19,996.65
2013,09,30,06,20,996.68
2013,09,30,06,21,996.65
2013,09,30,06,22,996.68
2013,09,30,06,23,996.68
2013,09,30,06,24,996.68
2013,09,30,06,25,996.68
2013,09,30,06,26,996.68
2013,09,30,06,27,996.68
2013,09,30,06,28,996.72
2013,09,30,06,29,996.72
2013,09,30,06,30,996.76
2013,09,30,06,31,996.82
2013,09,30,06,32,996.82
2013,09,30,06,33,996.86
2013,09,30,06,34,996.93
2013,09,30,06,35,997.00
2013,09,30,06,36,997.06
2013,09,30,06,37,997.12
2013,09,30,06,38,997.12
2013,09,30,06,39,997.09
2013,09,30,06,40,997.13
2013,09,30,06,41,997.19
2013,09,30,06,42,997.22
2013,09,30,06,43,997.26
2013,09,30,06,44,997.29
2013,09,30,06,45,997.39
2013,09,30,06,46,997.44
2013,09,30,06,47,997.50
2013,09,30,06,48,997.50
2013,09,30,06,49,997.50
2013,09,30,06,50,997.46
2013,09,30,06,51,997.47
2013,09,30,06,52,997.53
2013,09,30,06,53,997.53
2013,09,30,06,54,997.57
2013,09,30,06,55,997.63
2013,09,30,06,56,997.56
2013,09,30,06,57,997.56
2013,09,30,06,58,997.63
2013,09,30,06,59,997.60
2013,09,30,07,00,997.70
2013,09,30,07,01,997.74
2013,09,30,07,02,997.81
2013,09,30,07,03,997.87
2013,09,30,07,04,997.87
2013,09,30,07,05,997.83
2013,09,30,07,06,997.87
2013,09,30,07,07,997.90
2013,09,30,07,08,997.90
2013,09,30,07,09,997.95
2013,09,30,07,10,998.08
2013,09,30,07,11,998.14
2013,09,30,07,12,998.14
2013,09,30,07,13,998.17
2013,09,30,07,14,998.21
2013,09,30,07,15,998.25
2013,09,30,07,16,998.31
2013,09,30,07,17,998.31
2013,09,30,07,18,998.33
2013,09,30,07,19,998.21
2013,09,30,07,20,998.21
2013,09,30,07,21,998.25
2013,09,30,07,22,998.38
2013,09,30,07,23,998.34
2013,09,30,07,24,998.34
2013,09,30,07,25,998.38
2013,09,30,07,26,998.41
2013,09,30,07,27,998.38
2013,09,30,07,28,998.44
2013,09,30,07,29,998.52
2013,09,30,07,30,998.58
2013,09,30,07,31,998.51
2013,09,30,07,32,998.51
2013,09,30,07,33,998.51
2013,09,30,07,34,998.57
2013,09,30,07,35,998.51
2013,09,30,07,36,998.54
2013,09,30,07,37,998.58
2013,09,30,07,38,998.59
2013,09,30,07,39,998.65
2013,09,30,07,40,998.68
2013,09,30,07,41,998.78
2013,09,30,07,42,998.78
2013,09,30,07,43,998.85
2013,09,30,07,44,998.92
2013,09,30,07,45,998.87
2013,09,30,07,46,998.76
2013,09,30,07,47,998.82
2013,09,30,07,48,998.82
2013,09,30,07,49,998.85
2013,09,30,07,50,998.92
2013,09,30,07,51,998.92
2013,09,30,07,52,998.92
2013,09,30,07,53,998.92
2013,09,30,07,54,998.95
2013,09,30,07,55,998.95
2013,09,30,07,56,998.93
2013,09,30,07,57,998.99
2013,09,30,07,58,999.03
2013,09,30,07,59,999.15
2013,09,30,08,00,999.22
2013,09,30,08,01,999.29
2013,09,30,08,02,999.31
2013,09,30,08,03,999.15
2013,09,30,08,04,999.08
2013,09,30,08,05,999.02
2013,09,30,08,06,999.09
2013,09,30,08,07,999.12
2013,09,30,08,08,999.22
2013,09,30,08,09,999.26
2013,09,30,08,10,999.29
2013,09,30,08,11,999.32
2013,09,30,08,12,999.39
2013,09,30,08,13,999.43
2013,09,30,08,14,999.49
2013,09,30,08,15,999.49
2013,09,30,08,16,999.56
2013,09,30,08,17,999.56
2013,09,30,08,18,999.59
2013,09,30,08,19,999.56
2013,09,30,08,20,999.59
2013,09,30,08,21,999.59
2013,09,30,08,22,999.59
2013,09,30,08,23,999.53
2013,09,30,08,24,999.49
2013,09,30,08,25,999.49
2013,09,30,08,26,999.53
2013,09,30,08,27,999.64
2013,09,30,08,28,999.76
2013,09,30,08,29,999.83
2013,09,30,08,30,999.83
2013,09,30,08,31,999.83
2013,09,30,08,32,999.83
2013,09,30,08,33,999.87
2013,09,30,08,34,999.83
2013,09,30,08,35,999.83
2013,09,30,08,36,999.80
2013,09,30,08,37,999.83
2013,09,30,08,38,999.80
2013,09,30,08,39,999.80
2013,09,30,08,40,999.83
2013,09,30,08,41,999.80
2013,09,30,08,42,999.87
2013,09,30,08,43,999.87
2013,09,30,08,44,999.87
2013,09,30,08,45,999.87
2013,09,30,08,46,999.83
2013,09,30,08,47,999.76
2013,09,30,08,48,999.80
2013,09,30,08,49,999.87
2013,09,30,08,50,999.87
2013,09,30,08,51,999.83
2013,09,30,08,52,999.83
2013,09,30,08,53,999.87
2013,09,30,08,54,999.87
2013,09,30,08,55,999.87
2013,09,30,08,56,999.93
2013,09,30,08,57,999.97
2013,09,30,08,58,999.93
2013,09,30,08,59,999.93
2013,09,30,09,00,999.97
2013,09,30,09,01,999.93
2013,09,30,09,02,999.97
2013,09,30,09,03,1000.00
2013,09,30,09,04,1000.03
2013,09,30,09,05,1000.03
2013,09,30,09,06,1000.03
2013,09,30,09,07,1000.03
2013,09,30,09,08,1000.07
2013,09,30,09,09,1000.14
2013,09,30,09,10,1000.20
2013,09,30,09,11,1000.20
2013,09,30,09,12,1000.24
2013,09,30,09,13,1000.24
2013,09,30,09,14,1000.27
2013,09,30,09,15,1000.31
2013,09,30,09,16,1000.37
2013,09,30,09,17,1000.41
2013,09,30,09,18,1000.48
2013,09,30,09,19,1000.48
2013,09,30,09,20,1000.51
2013,09,30,09,21,1000.54
2013,09,30,09,22,1000.55
2013,09,30,09,23,1000.68
2013,09,30,09,24,1000.68
2013,09,30,09,25,1000.64
2013,09,30,09,26,1000.64
2013,09,30,09,27,1000.68
2013,09,30,09,28,1000.64
2013,09,30,09,29,1000.61
2013,09,30,09,30,1000.58
2013,09,30,09,31,1000.54
2013,09,30,09,32,1000.58
2013,09,30,09,33,1000.64
2013,09,30,09,34,1000.68
2013,09,30,09,35,1000.68
2013,09,30,09,36,1000.72
2013,09,30,09,37,1000.81
2013,09,30,09,38,1000.81
2013,09,30,09,39,1000.78
2013,09,30,09,40,1000.81
2013,09,30,09,41,1000.85
2013,09,30,09,42,1000.92
2013,09,30,09,43,1000.98
2013,09,30,09,44,1000.95
2013,09,30,09,45,1000.95
2013,09,30,09,46,1000.92
2013,09,30,09,47,1000.96
2013,09,30,09,48,1001.08
2013,09,30,09,49,1001.12
2013,09,30,09,50,1001.12
2013,09,30,09,51,1001.12
2013,09,30,09,52,1001.12
2013,09,30,09,53,1001.12
2013,09,30,09,54,1001.08
2013,09,30,09,55,1001.08
2013,09,30,09,56,1001.12
2013,09,30,09,57,1001.15
2013,09,30,09,58,1001.15
2013,09,30,09,59,1001.08
2013,09,30,10,00,1001.12
2013,09,30,10,01,1001.15
2013,09,30,10,02,1001.12
2013,09,30,10,03,1001.12
2013,09,30,10,04,1001.15
2013,09,30,10,05,1001.15
2013,09,30,10,06,1001.22
2013,09,30,10,07,1001.29
2013,09,30,10,08,1001.22
2013,09,30,10,09,1001.15
2013,09,30,10,10,1001.22
2013,09,30,10,11,1001.25
2013,09,30,10,12,1001.29
2013,09,30,10,13,1001.36
2013,09,30,10,14,1001.36
2013,09,30,10,15,1001.40
2013,09,30,10,16,1001.49
2013,09,30,10,17,1001.49
2013,09,30,10,18,1001.52
2013,09,30,10,19,1001.59
2013,09,30,10,20,1001.63
2013,09,30,10,21,1001.66
2013,09,30,10,22,1001.63
2013,09,30,10,23,1001.63
2013,09,30,10,24,1001.66
2013,09,30,10,25,1001.76
2013,09,30,10,26,1001.72
2013,09,30,10,27,1001.56
2013,09,30,10,28,1001.49
2013,09,30,10,29,1001.46
2013,09,30,10,30,1001.52
2013,09,30,10,31,1001.49
2013,09,30,10,32,1001.52
2013,09,30,10,33,1001.52
2013,09,30,10,34,1001.49
2013,09,30,10,35,1001.50
2013,09,30,10,36,1001.66
2013,09,30,10,37,1001.63
2013,09,30,10,38,1001.63
2013,09,30,10,39,1001.66
2013,09,30,10,40,1001.66
2013,09,30,10,41,1001.63
2013,09,30,10,42,1001.66
2013,09,30,10,43,1001.66
2013,09,30,10,44,1001.69
2013,09,30,10,45,1001.63
2013,09,30,10,46,1001.59
2013,09,30,10,47,1001.59
2013,09,30,10,48,1001.63
2013,09,30,10,49,1001.66
2013,09,30,10,50,1001.66
2013,09,30,10,51,1001.63
2013,09,30,10,52,1001.66
2013,09,30,10,53,1001.73
2013,09,30,10,54,1001.80
2013,09,30,10,55,1001.80
2013,09,30,10,56,1001.80
2013,09,30,10,57,1001.83
2013,09,30,10,58,1001.80
2013,09,30,10,59,1001.80
2013,09,30,11,00,1001.76
2013,09,30,11,01,1001.80
2013,09,30,11,02,1001.83
2013,09,30,11,03,1001.90
2013,09,30,11,04,1001.93
2013,09,30,11,05,1001.97
2013,09,30,11,06,1002.08
2013,09,30,11,07,1002.17
2013,09,30,11,08,1002.17
2013,09,30,11,09,1002.13
2013,09,30,11,10,1002.06
2013,09,30,11,11,1001.93
2013,09,30,11,12,1001.91
2013,09,30,11,13,1002.00
2013,09,30,11,14,1002.03
2013,09,30,11,15,1002.00
2013,09,30,11,16,1002.00
2013,09,30,11,17,1002.00
2013,09,30,11,18,1002.03
2013,09,30,11,19,1002.03
2013,09,30,11,20,1002.13
2013,09,30,11,21,1002.10
2013,09,30,11,22,1002.17
2013,09,30,11,23,1002.13
2013,09,30,11,24,1002.20
2013,09,30,11,25,1002.17
2013,09,30,11,26,1002.24
2013,09,30,11,27,1002.17
2013,09,30,11,28,1002.24
2013,09,30,11,29,1002.20
2013,09,30,11,30,1002.13
2013,09,30,11,31,1002.07
2013,09,30,11,32,1002.20
2013,09,30,11,33,1002.27
2013,09,30,11,34,1002.34
2013,09,30,11,35,1002.41
2013,09,30,11,36,1002.41
2013,09,30,11,37,1002.44
2013,09,30,11,38,1002.38
2013,09,30,11,39,1002.51
2013,09,30,11,40,1002.57
2013,09,30,11,41,1002.57
2013,09,30,11,42,1002.57
2013,09,30,11,43,1002.57
2013,09,30,11,44,1002.54
2013,09,30,11,45,1002.61
2013,09,30,11,46,1002.68
2013,09,30,11,47,1002.61
2013,09,30,11,48,1002.61
2013,09,30,11,49,1002.61
2013,09,30,11,50,1002.68
2013,09,30,11,51,1002.74
2013,09,30,11,52,1002.74
2013,09,30,11,53,1002.78
2013,09,30,11,54,1002.78
2013,09,30,11,55,1002.85
2013,09,30,11,56,1002.85
2013,09,30,11,57,1002.91
2013,09,30,11,58,1002.98
2013,09,30,11,59,1003.06
2013,09,30,12,00,1003.22
2013,09,30,12,01,1003.33
2013,09,30,12,02,1003.46
2013,09,30,12,03,1003.60
2013,09,30,12,04,1003.83
2013,09,30,12,05,1003.82
2013,09,30,12,06,1003.59
2013,09,30,12,07,1003.56
2013,09,30,12,08,1003.49
2013,09,30,12,09,1003.59
2013,09,30,12,10,1003.66
2013,09,30,12,11,1003.66
2013,09,30,12,12,1003.62
2013,09,30,12,13,1003.69
2013,09,30,12,14,1003.76
2013,09,30,12,15,1003.83
2013,09,30,12,16,1003.79
2013,09,30,12,17,1003.77
2013,09,30,12,18,1003.90
2013,09,30,12,19,1003.83
2013,09,30,12,20,1003.79
2013,09,30,12,21,1003.79
2013,09,30,12,22,1003.82
2013,09,30,12,23,1003.63
2013,09,30,12,24,1003.76
2013,09,30,12,25,1003.73
2013,09,30,12,26,1003.76
2013,09,30,12,27,1003.86
2013,09,30,12,28,1003.90
2013,09,30,12,29,1004.03
2013,09,30,12,30,1004.03
2013,09,30,12,31,1004.03
2013,09,30,12,32,1004.00
2013,09,30,12,33,1003.96
2013,09,30,12,34,1003.85
2013,09,30,12,35,1003.72
2013,09,30,12,36,1003.62
2013,09,30,12,37,1003.59
2013,09,30,12,38,1003.59
2013,09,30,12,39,1003.62
2013,09,30,12,40,1003.59
2013,09,30,12,41,1003.62
2013,09,30,12,42,1003.69
2013,09,30,12,43,1003.69
2013,09,30,12,44,1003.69
2013,09,30,12,45,1003.73
2013,09,30,12,46,1003.69
2013,09,30,12,47,1003.69
2013,09,30,12,48,1003.62
2013,09,30,12,49,1003.62
2013,09,30,12,50,1003.69
2013,09,30,12,51,1003.73
2013,09,30,12,52,1003.69
2013,09,30,12,53,1003.69
2013,09,30,12,54,1003.66
2013,09,30,12,55,1003.73
2013,09,30,12,56,1003.73
2013,09,30,12,57,1003.79
2013,09,30,12,58,1003.79
2013,09,30,12,59,1003.76
2013,09,30,13,00,1003.76
2013,09,30,13,01,1003.80
2013,09,30,13,02,1003.90
2013,09,30,13,03,1003.90
2013,09,30,13,04,1003.93
2013,09,30,13,05,1003.86
2013,09,30,13,06,1003.86
2013,09,30,13,07,1003.90
2013,09,30,13,08,1003.90
2013,09,30,13,09,1003.93
2013,09,30,13,10,1004.00
2013,09,30,13,11,1004.10
2013,09,30,13,12,1004.13
2013,09,30,13,13,1004.13
2013,09,30,13,14,1004.17
2013,09,30,13,15,1004.30
2013,09,30,13,16,1004.37
2013,09,30,13,17,1004.40
2013,09,30,13,18,1004.62
2013,09,30,13,19,1004.92
2013,09,30,13,20,1005.08
2013,09,30,13,21,1005.05
2013,09,30,13,22,1004.95
2013,09,30,13,23,1005.01
2013,09,30,13,24,1005.05
2013,09,30,13,25,1004.88
2013,09,30,13,26,1004.94
2013,09,30,13,27,1004.81
2013,09,30,13,28,1004.88
2013,09,30,13,29,1004.71
2013,09,30,13,30,1004.74
2013,09,30,13,31,1004.78
2013,09,30,13,32,1004.78
2013,09,30,13,33,1004.74
2013,09,30,13,34,1004.71
2013,09,30,13,35,1004.74
2013,09,30,13,36,1004.71
2013,09,30,13,37,1004.74
2013,09,30,13,38,1004.84
2013,09,30,13,39,1004.84
2013,09,30,13,40,1004.84
2013,09,30,13,41,1004.81
2013,09,30,13,42,1004.88
2013,09,30,13,43,1004.84
2013,09,30,13,44,1004.91
2013,09,30,13,45,1004.91
2013,09,30,13,46,1004.84
2013,09,30,13,47,1004.71
2013,09,30,13,48,1004.81
2013,09,30,13,49,1004.81
2013,09,30,13,50,1004.88
2013,09,30,13,51,1004.91
2013,09,30,13,52,1004.78
2013,09,30,13,53,1004.81
2013,09,30,13,54,1004.78
2013,09,30,13,55,1004.74
2013,09,30,13,56,1004.74
2013,09,30,13,57,1004.71
2013,09,30,13,58,1004.74
2013,09,30,13,59,1004.78
2013,09,30,14,00,1004.84
2013,09,30,14,01,1004.84
2013,09,30,14,02,1004.91
2013,09,30,14,03,1004.88
2013,09,30,14,04,1004.84
2013,09,30,14,05,1004.88
2013,09,30,14,06,1004.91
2013,09,30,14,07,1004.81
2013,09,30,14,08,1004.95
2013,09,30,14,09,1004.84
2013,09,30,14,10,1004.88
2013,09,30,14,11,1004.81
2013,09,30,14,12,1004.71
2013,09,30,14,13,1004.67
2013,09,30,14,14,1004.74
2013,09,30,14,15,1004.71
2013,09,30,14,16,1004.74
2013,09,30,14,17,1004.78
2013,09,30,14,18,1004.84
2013,09,30,14,19,1004.81
2013,09,30,14,20,1004.84
2013,09,30,14,21,1004.91
2013,09,30,14,22,1004.91
2013,09,30,14,23,1005.01
2013,09,30,14,24,1005.01
2013,09,30,14,25,1005.05
2013,09,30,14,26,1005.11
2013,09,30,14,27,1005.18
2013,09,30,14,28,1005.25
2013,09,30,14,29,1005.32
2013,09,30,14,30,1005.28
2013,09,30,14,31,1005.25
2013,09,30,14,32,1005.32
2013,09,30,14,33,1005.39
2013,09,30,14,34,1005.22
2013,09,30,14,35,1005.32
2013,09,30,14,36,1005.35
2013,09,30,14,37,1005.42
2013,09,30,14,38,1005.45
2013,09,30,14,39,1005.49
2013,09,30,14,40,1005.55
2013,09,30,14,41,1005.55
2013,09,30,14,42,1005.55
2013,09,30,14,43,1005.55
2013,09,30,14,44,1005.59
2013,09,30,14,45,1005.59
2013,09,30,14,46,1005.62
2013,09,30,14,47,1005.62
2013,09,30,14,48,1005.55
2013,09,30,14,49,1005.55
2013,09,30,14,50,1005.52
2013,09,30,14,51,1005.49
2013,09,30,14,52,1005.49
2013,09,30,14,53,1005.62
2013,09,30,14,54,1005.72
2013,09,30,14,55,1005.89
2013,09,30,14,56,1005.86
2013,09,30,14,57,1005.79
2013,09,30,14,58,1005.79
2013,09,30,14,59,1005.79
2013,09,30,15,00,1005.76
2013,09,30,15,01,1005.72
2013,09,30,15,02,1005.72
2013,09,30,15,03,1005.72
2013,09,30,15,04,1005.76
2013,09,30,15,05,1005.72
2013,09,30,15,06,1005.72
2013,09,30,15,07,1005.72
2013,09,30,15,08,1005.72
2013,09,30,15,09,1005.66
2013,09,30,15,10,1005.69
2013,09,30,15,11,1005.66
2013,09,30,15,12,1005.66
2013,09,30,15,13,1005.66
2013,09,30,15,14,1005.72
2013,09,30,15,15,1005.76
2013,09,30,15,16,1005.79
2013,09,30,15,17,1005.79
2013,09,30,15,18,1005.76
2013,09,30,15,19,1005.72
2013,09,30,15,20,1005.76
2013,09,30,15,21,1005.86
2013,09,30,15,22,1005.86
2013,09,30,15,23,1005.83
2013,09,30,15,24,1005.83
2013,09,30,15,25,1005.83
2013,09,30,15,26,1005.79
2013,09,30,15,27,1005.79
2013,09,30,15,28,1005.83
2013,09,30,15,29,1005.86
2013,09,30,15,30,1005.86
2013,09,30,15,31,1005.86
2013,09,30,15,32,1005.89
2013,09,30,15,33,1005.93
2013,09,30,15,34,1005.96
2013,09,30,15,35,1005.93
2013,09,30,15,36,1005.96
2013,09,30,15,37,1005.96
2013,09,30,15,38,1005.93
2013,09,30,15,39,1005.93
2013,09,30,15,40,1005.93
2013,09,30,15,41,1005.93
2013,09,30,15,42,1005.99
2013,09,30,15,43,1006.06
2013,09,30,15,44,1006.03
2013,09,30,15,45,1006.06
2013,09,30,15,46,1006.06
2013,09,30,15,47,1006.03
2013,09,30,15,48,1006.06
2013,09,30,15,49,1006.06
2013,09,30,15,50,1006.06
2013,09,30,15,51,1006.10
2013,09,30,15,52,1006.13
2013,09,30,15,53,1006.06
2013,09,30,15,54,1006.06
2013,09,30,15,55,1006.03
2013,09,30,15,56,1006.10
2013,09,30,15,57,1006.10
2013,09,30,15,58,1006.06
2013,09,30,15,59,1006.10
2013,09,30,16,00,1006.10
2013,09,30,16,01,1006.10
2013,09,30,16,02,1006.13
2013,09,30,16,03,1006.10
2013,09,30,16,04,1005.99
2013,09,30,16,05,1006.03
2013,09,30,16,06,1006.06
2013,09,30,16,07,1005.99
2013,09,30,16,08,1005.99
2013,09,30,16,09,1005.96
2013,09,30,16,10,1005.99
2013,09,30,16,11,1005.99
2013,09,30,16,12,1006.03
2013,09,30,16,13,1005.99
2013,09,30,16,14,1005.96
2013,09,30,16,15,1006.03
2013,09,30,16,16,1006.03
2013,09,30,16,17,1006.03
2013,09,30,16,18,1005.99
2013,09,30,16,19,1006.03